| time (UTC) | temp F | wind direction | speed MPH | gust MPH | rain 1hr in | rain 24hr in | rain mn in | humidity % | barometer mb |
| 20260505080910 | 50 | 0 | 0.0 | 9.0 | 0.00 | 0.00 | 0.00 | 88 | 1014.7 |
| 20260505080309 | 50 | 304 | 5.0 | 9.0 | 0.00 | 0.00 | 0.00 | 88 | 1014.7 |
| 20260505075411 | 50 | 259 | 1.0 | 10.0 | 0.00 | 0.00 | 0.00 | 88 | 1014.7 |
| 20260505074809 | 50 | 0 | 0.0 | 10.0 | 0.00 | 0.00 | 0.00 | 88 | 1014.6 |
| 20260505073911 | 50 | 239 | 6.0 | 10.0 | 0.00 | 0.00 | 0.00 | 88 | 1014.5 |
| 20260505073310 | 50 | 0 | 0.0 | 9.0 | 0.00 | 0.00 | 0.00 | 88 | 1014.4 |
| 20260505072411 | 50 | 0 | 0.0 | 11.0 | 0.00 | 0.00 | 0.00 | 88 | 1014.4 |
| 20260505071810 | 50 | 0 | 0.0 | 11.0 | 0.00 | 0.00 | 0.00 | 88 | 1014.4 |
| 20260505070912 | 50 | 232 | 10.0 | 10.0 | 0.00 | 0.00 | 0.00 | 88 | 1014.2 |
| 20260505070310 | 50 | 254 | 4.0 | 6.0 | 0.00 | 0.00 | 0.00 | 88 | 1014.1 |
| 20260505065411 | 50 | 0 | 0.0 | 12.0 | 0.00 | 0.00 | 0.00 | 88 | 1014.1 |
| 20260505064810 | 50 | 0 | 6.0 | 12.0 | 0.00 | 0.00 | 0.00 | 88 | 1014.1 |
| 20260505063912 | 50 | 0 | 0.0 | 12.0 | 0.00 | 0.00 | 0.00 | 88 | 1014.1 |
| 20260505063310 | 50 | 270 | 6.0 | 12.0 | 0.00 | 0.00 | 0.00 | 88 | 1014.1 |
| 20260505062411 | 50 | 0 | 0.0 | 16.0 | 0.00 | 0.00 | 0.00 | 88 | 1014.1 |
| 20260505061810 | 50 | 0 | 0.0 | 16.0 | 0.00 | 0.00 | 0.00 | 88 | 1014.0 |
| 20260505060911 | 50 | 0 | 0.0 | 16.0 | 0.00 | 0.00 | 0.00 | 88 | 1014.0 |
| 20260505060310 | 50 | 0 | 9.0 | 16.0 | 0.00 | 0.00 | 0.00 | 88 | 1013.9 |
| 20260505055411 | 50 | 0 | 0.0 | 17.0 | 0.00 | 0.00 | 0.00 | 88 | 1013.8 |
| 20260505054810 | 50 | 269 | 1.0 | 17.0 | 0.00 | 0.00 | 0.00 | 88 | 1013.7 |
| 20260505053911 | 50 | 0 | 10.0 | 17.0 | 0.00 | 0.00 | 0.00 | 88 | 1013.6 |
| 20260505053309 | 50 | 263 | 8.0 | 17.0 | 0.00 | 0.00 | 0.00 | 88 | 1013.5 |
| 20260505052411 | 50 | 0 | 0.0 | 15.0 | 0.00 | 0.00 | 0.00 | 88 | 1013.5 |
| 20260505051809 | 50 | 268 | 13.0 | 15.0 | 0.00 | 0.00 | 0.00 | 88 | 1013.5 |
| 20260505050911 | 50 | 285 | 9.0 | 14.0 | 0.00 | 0.00 | 0.00 | 88 | 1013.4 |
| 20260505050309 | 50 | 0 | 0.0 | 10.0 | 0.00 | 0.00 | 0.00 | 88 | 1013.4 |
| 20260505040911 | 51 | 244 | 10.0 | 15.0 | 0.00 | 0.00 | 0.00 | 87 | 1013.1 |
| 20260505040309 | 51 | 0 | 12.0 | 14.0 | 0.00 | 0.00 | 0.00 | 87 | 1013.0 |
| 20260505035410 | 52 | 0 | 6.0 | 18.0 | 0.00 | 0.00 | 0.00 | 87 | 1012.8 |
| 20260505034809 | 52 | 233 | 1.0 | 18.0 | 0.00 | 0.00 | 0.00 | 87 | 1012.7 |
| 20260505033912 | 52 | 0 | 13.0 | 15.0 | 0.00 | 0.00 | 0.00 | 87 | 1012.5 |
| 20260505033309 | 52 | 0 | 11.0 | 13.0 | 0.00 | 0.00 | 0.00 | 87 | 1012.5 |
| 20260504120309 | 52 | 260 | 7.0 | 11.0 | 0.00 | 0.00 | 0.00 | 85 | 1010.4 |
| 20260504110309 | 55 | 0 | 0.0 | 6.0 | 0.00 | 0.00 | 0.00 | 79 | 1009.9 |
| 20260504100309 | 59 | 0 | 0.0 | 0.0 | 0.00 | 0.00 | 0.00 | 70 | 1009.9 |
| 20260504081810 | 67 | 0 | 0.0 | 0.0 | 0.00 | 0.00 | 0.00 | 50 | 1009.8 |